OpenBCM V1.07b12 (Linux)

Packet Radio Mailbox

DB0FHN

[JN59NK Nuernberg]

 Login: GUEST





  
I6KZR  > KEPLER   21.01.03 22:56l 1460 Lines 39192 Bytes #999 (0) @ WW
BID : 19746_IK6WID
Read: DB0FHN GUEST
Subj: Old Istantrak Keplerians #021
Path: DB0FHN<DB0RGB<OK0PPL<RZ6HXA<IK1ZNW<IK6PYS<I6ZLO<IK6WID
Sent: 030121/2143Z @:IK6WID.#AP.IMAR.ITA.EU #:19746 [MONTE URANO]  FBB7.00i
From: I6KZR@IK6WID.#AP.IMAR.ITA.EU
To  : KEPLER@WW


Satellite: OSCAR 7
Catalog number: 07530
Epoch time:      103019.12574091
Element set:     143 
Inclination:      101.7685 deg
RA of node:        67.1930 deg
Eccentricity:    0.0012560
Arg of perigee:   137.3044 deg
Mean anomaly:     222.9006 deg
Mean motion:   12.53563662 rev/day
Decay rate:   -2.9000E-007 rev/day^2
Epoch rev:           28937
Checksum:              278

Satellite: GOES 2
Catalog number: 10061
Epoch time:      103019.51073537
Element set:     61 
Inclination:       14.1247 deg
RA of node:        13.6744 deg
Eccentricity:    0.0013638
Arg of perigee:   197.1605 deg
Mean anomaly:     162.8376 deg
Mean motion:    0.99393429 rev/day
Decay rate:    5.2000E-007 rev/day^2
Epoch rev:            3853
Checksum:              277

Satellite: GOES 3
Catalog number: 10953
Epoch time:      103020.01805056
Element set:     896 
Inclination:       13.3963 deg
RA of node:        17.4581 deg
Eccentricity:    0.0004617
Arg of perigee:   337.6061 deg
Mean anomaly:      22.4254 deg
Mean motion:    1.00278309 rev/day
Decay rate:   -8.8000E-007 rev/day^2
Epoch rev:            4320
Checksum:              261

Satellite: GOES 6
Catalog number: 14050
Epoch time:      103016.14732176
Element set:     414 
Inclination:       10.3570 deg
RA of node:        35.6987 deg
Eccentricity:    0.0003031
Arg of perigee:   351.7582 deg
Mean anomaly:       8.3301 deg
Mean motion:    1.00292235 rev/day
Decay rate:    6.7000E-007 rev/day^2
Epoch rev:           13030
Checksum:              233

Satellite: OSCAR 10
Catalog number: 14129
Epoch time:      103013.46521539
Element set:     911 
Inclination:       25.8708 deg
RA of node:       170.2888 deg
Eccentricity:    0.6042226
Arg of perigee:   318.8494 deg
Mean anomaly:       8.5240 deg
Mean motion:    2.05869613 rev/day
Decay rate:   -3.1300E-006 rev/day^2
Epoch rev:           11932
Checksum:              367

Satellite: OSCAR 11 (UoSA
Catalog number: 14781
Epoch time:      103020.56705089
Element set:     49 
Inclination:       98.1133 deg
RA of node:       354.2780 deg
Eccentricity:    0.0008815
Arg of perigee:   311.4589 deg
Mean anomaly:      48.5859 deg
Mean motion:   14.77909745 rev/day
Decay rate:    2.2550E-005 rev/day^2
Epoch rev:            1195
Checksum:              327

Satellite: NOAA 10
Catalog number: 16969
Epoch time:      103021.15218541
Element set:     634 
Inclination:       98.7261 deg
RA of node:        15.3255 deg
Eccentricity:    0.0012554
Arg of perigee:   166.0301 deg
Mean anomaly:     194.1229 deg
Mean motion:   14.27053164 rev/day
Decay rate:    2.6299E-006 rev/day^2
Epoch rev:           84985
Checksum:              303

Satellite: GOES 7
Catalog number: 17561
Epoch time:      103013.52827387
Element set:     810 
Inclination:        7.5470 deg
RA of node:        55.7264 deg
Eccentricity:    0.0004064
Arg of perigee:   288.6625 deg
Mean anomaly:     149.4031 deg
Mean motion:    1.00317770 rev/day
Decay rate:    1.1600E-006 rev/day^2
Epoch rev:            4138
Checksum:              275

Satellite: COSMOS 1861
Catalog number: 18129
Epoch time:      103019.04264408
Element set:     193 
Inclination:       82.9246 deg
RA of node:       169.1255 deg
Eccentricity:    0.0011127
Arg of perigee:   319.2729 deg
Mean anomaly:      40.7590 deg
Mean motion:   13.72697821 rev/day
Decay rate:    9.0999E-007 rev/day^2
Epoch rev:           78032
Checksum:              338

Satellite: EUTELSAT 1-F4 
Catalog number: 18351
Epoch time:      103016.60000000
Element set:     28 
Inclination:        7.0610 deg
RA of node:        58.7710 deg
Eccentricity:    0.0010065
Arg of perigee:   125.6900 deg
Mean anomaly:     263.2870 deg
Mean motion:    0.98688648 rev/day
Decay rate:   -1.3400E-006 rev/day^2
Epoch rev:            4235
Checksum:              253

Satellite: NOAA 11
Catalog number: 19531
Epoch time:      103021.14729122
Element set:     472 
Inclination:       98.9052 deg
RA of node:       102.6188 deg
Eccentricity:    0.0010928
Arg of perigee:   284.3250 deg
Mean anomaly:      75.6709 deg
Mean motion:   14.14524036 rev/day
Decay rate:    2.5599E-006 rev/day^2
Epoch rev:           73878
Checksum:              312

Satellite: ASTRA 1A
Catalog number: 19688
Epoch time:      103017.81495582
Element set:     558 
Inclination:        1.3145 deg
RA of node:        95.0963 deg
Eccentricity:    0.0003992
Arg of perigee:   194.8757 deg
Mean anomaly:     125.4504 deg
Mean motion:    1.00274781 rev/day
Decay rate:    4.8999E-007 rev/day^2
Epoch rev:            3187
Checksum:              339

Satellite: OSCAR 14 (UOSA
Catalog number: 20437
Epoch time:      103021.11520437
Element set:     146 
Inclination:       98.2775 deg
RA of node:        66.0828 deg
Eccentricity:    0.0010093
Arg of perigee:   290.3852 deg
Mean anomaly:      69.6241 deg
Mean motion:   14.31228500 rev/day
Decay rate:    2.3299E-006 rev/day^2
Epoch rev:           67842
Checksum:              294

Satellite: OSCAR 15 (UOSA
Catalog number: 20438
Epoch time:      103017.75600280
Element set:     763 
Inclination:       98.2521 deg
RA of node:        52.1455 deg
Eccentricity:    0.0009416
Arg of perigee:   313.1617 deg
Mean anomaly:      46.8776 deg
Mean motion:   14.30188817 rev/day
Decay rate:    1.6100E-006 rev/day^2
Epoch rev:           67761
Checksum:              409

Satellite: OSCAR 16 (PACS
Catalog number: 20439
Epoch time:      103020.57557174
Element set:     840 
Inclination:       98.3232 deg
RA of node:        77.0823 deg
Eccentricity:    0.0010354
Arg of perigee:   298.4678 deg
Mean anomaly:      61.5467 deg
Mean motion:   14.31460272 rev/day
Decay rate:    2.4599E-006 rev/day^2
Epoch rev:           67838
Checksum:              328

Satellite: OSCAR 17 (DOVE
Catalog number: 20440
Epoch time:      103020.22068365
Element set:     721 
Inclination:       98.3416 deg
RA of node:        80.5671 deg
Eccentricity:    0.0010757
Arg of perigee:   299.5483 deg
Mean anomaly:      60.4623 deg
Mean motion:   14.31737075 rev/day
Decay rate:    2.9200E-006 rev/day^2
Epoch rev:           67840
Checksum:              294

Satellite: OSCAR 18 (WEBE
Catalog number: 20441
Epoch time:      103020.55803274
Element set:     992 
Inclination:       98.3398 deg
RA of node:        80.1209 deg
Eccentricity:    0.0011051
Arg of perigee:   298.4837 deg
Mean anomaly:      61.5236 deg
Mean motion:   14.31542073 rev/day
Decay rate:    2.5300E-006 rev/day^2
Epoch rev:           67843
Checksum:              293

Satellite: OSCAR 19 (LUSA
Catalog number: 20442
Epoch time:      103021.16873997
Element set:     944 
Inclination:       98.3534 deg
RA of node:        83.6806 deg
Eccentricity:    0.0011436
Arg of perigee:   295.8545 deg
Mean anomaly:      64.1453 deg
Mean motion:   14.31705260 rev/day
Decay rate:    2.7200E-006 rev/day^2
Epoch rev:           67857
Checksum:              321

Satellite: JAS 1B (FUJI 2
Catalog number: 20480
Epoch time:      103018.90847156
Element set:     456 
Inclination:       99.0409 deg
RA of node:       347.4266 deg
Eccentricity:    0.0540895
Arg of perigee:    73.3079 deg
Mean anomaly:     292.6655 deg
Mean motion:   12.83328294 rev/day
Decay rate:   -7.9999E-008 rev/day^2
Epoch rev:           60658
Checksum:              368

Satellite: HST
Catalog number: 20580
Epoch time:      103019.84213198
Element set:     302 
Inclination:       28.4649 deg
RA of node:       231.1729 deg
Eccentricity:    0.0003896
Arg of perigee:   315.2574 deg
Mean anomaly:     160.1443 deg
Mean motion:   14.97694237 rev/day
Decay rate:    2.1660E-005 rev/day^2
Epoch rev:           49817
Checksum:              309

Satellite: EUTELSAT 2-F1
Catalog number: 20777
Epoch time:      103020.96616112
Element set:     18 
Inclination:        3.4336 deg
RA of node:        84.8234 deg
Eccentricity:    0.0000586
Arg of perigee:   213.7896 deg
Mean anomaly:     245.1756 deg
Mean motion:    1.00271346 rev/day
Decay rate:   -9.4000E-007 rev/day^2
Epoch rev:            2581
Checksum:              277

Satellite: FENGYUN 1B
Catalog number: 20788
Epoch time:      103020.91881885
Element set:     862 
Inclination:       99.0245 deg
RA of node:         3.3861 deg
Eccentricity:    0.0015254
Arg of perigee:   311.2323 deg
Mean anomaly:      48.7527 deg
Mean motion:   14.02140102 rev/day
Decay rate:    1.7000E-007 rev/day^2
Epoch rev:           63352
Checksum:              267

Satellite: EUTELSAT 2-F2
Catalog number: 21056
Epoch time:      103018.98974700
Element set:     611 
Inclination:        2.6576 deg
RA of node:        88.1748 deg
Eccentricity:    0.0002556
Arg of perigee:   220.7869 deg
Mean anomaly:     213.8256 deg
Mean motion:    1.00277988 rev/day
Decay rate:    1.2900E-006 rev/day^2
Epoch rev:            3157
Checksum:              309

Satellite: INFORMATOR 1
Catalog number: 21087
Epoch time:      103019.43093742
Element set:     592 
Inclination:       82.9414 deg
RA of node:       339.7215 deg
Eccentricity:    0.0035443
Arg of perigee:   337.3213 deg
Mean anomaly:      22.6374 deg
Mean motion:   13.74923211 rev/day
Decay rate:    9.8999E-007 rev/day^2
Epoch rev:           60074
Checksum:              410

Satellite: COSMOS 2123
Catalog number: 21089
Epoch time:      103020.56639926
Element set:     484 
Inclination:       82.9210 deg
RA of node:       202.8911 deg
Eccentricity:    0.0030264
Arg of perigee:     9.7212 deg
Mean anomaly:     350.4519 deg
Mean motion:   13.74401217 rev/day
Decay rate:    9.2999E-007 rev/day^2
Epoch rev:           59980
Checksum:              415

